Lake Charles Regional, LA

3:35 AM CDT on August 19, 2017 (GMT -0500)
Lake Charles Regional

Weather History for KLCH - December, 2011

Change the Weather History Date:

Wednesday, December 21, 2011

  Actual Average Record
Temperature  
Mean Temperature 56 °F 53 °F  
Max Temperature 66 °F 62 °F 78 °F (1998)
Min Temperature 45 °F 43 °F 22 °F (1901)
Degree Days  
Heating Degree Days 9 13  
Month to date heating degree days 205 234  
Since 1 July heating degree days 421 441  
Cooling Degree Days 0 1  
Month to date cooling degree days 13 21  
Year to date cooling degree days 3254 2810  
Growing Degree Days 4 (Base 50)    
Moisture  
Dew Point 44 °F    
Average Humidity 64    
Maximum Humidity 83    
Minimum Humidity 44    
Precipitation  
Precipitation 0.00 in 0.15 in 4.45 in (1923)
Month to date precipitation 1.12 3.08  
Year to date precipitation 35.06 55.89  
Snow  
Snow 0.00 in 0.00 in 0.00 in ()
Month to date snowfall 0.0 0.0  
Since 1 July snowfall 0.0 0.0  
Snow Depth 0.00 in    
Sea Level Pressure  
Sea Level Pressure 29.99 in    
Wind  
Wind Speed 6 mph (NNE)    
Max Wind Speed 10 mph    
Max Gust Speed 15 mph    
Visibility 10 miles    
Events      
T = Trace of Precipitation, MM = Missing Value Source: NWS Daily Summary

Daily Weather History Graph

Daily Weather History Graph

Search for Another Location

Airport or City:

Trip Planner

Search our weather history database for the weather conditions in past years. The results will help you decide how hot, cold, wet, or windy it might be!

Date:

Astronomy

Dec. 21, 2011 Rise Set
Actual Time 7:04 AM CST 5:17 PM CST
Civil Twilight 6:38 AM CST 5:43 PM CST
Nautical Twilight 6:08 AM CST 6:13 PM CST
Astronomical Twilight 5:39 AM CST 6:42 PM CST
Moon 3:43 AM CST (12/21) 2:33 PM CST (12/21)
Length of Visible Light 11h 05m
Length of Day
10h 12m
Waning Crescent, 12% of the Moon is Illuminated
Dec 21
Waning Crescent
Dec 24
New
Jan 1
First Quarter
Jan 9
Full
Jan 16
Last Quarter

Hourly Weather History & Observations

Time (CST) Temp. Windchill Dew Point Humidity Pressure Visibility Wind Dir Wind Speed Gust Speed Precip Events Conditions
12:53 AM 52.0 °F - 44.1 °F 74% 30.01 in 10.0 mi NNW 6.9 mph - N/A   Mostly Cloudy
1:53 AM 50.0 °F - 44.1 °F 80% 30.00 in 10.0 mi NNW 5.8 mph - N/A   Clear
2:53 AM 50.0 °F - 43.0 °F 77% 30.00 in 10.0 mi North 4.6 mph - N/A   Partly Cloudy
3:53 AM 48.0 °F - 42.1 °F 80% 30.00 in 10.0 mi NNW 5.8 mph - N/A   Clear
4:53 AM 48.0 °F - 41.0 °F 77% 30.01 in 10.0 mi North 5.8 mph - N/A   Clear
5:53 AM 46.9 °F - 39.9 °F 77% 30.03 in 10.0 mi North 4.6 mph - N/A   Clear
6:53 AM 45.0 °F 40.6 °F 39.9 °F 82% 30.04 in 10.0 mi North 8.1 mph - N/A   Clear
7:53 AM 46.9 °F - 41.0 °F 80% 30.07 in 10.0 mi NNW 8.1 mph - N/A   Clear
8:53 AM 50.0 °F - 41.0 °F 71% 30.09 in 10.0 mi NNE 8.1 mph - N/A   Clear
9:53 AM 51.1 °F - 42.1 °F 71% 30.09 in 10.0 mi NNE 6.9 mph - N/A   Clear
10:53 AM 54.0 °F - 42.1 °F 64% 30.07 in 10.0 mi ENE 5.8 mph - N/A   Clear
11:53 AM 57.2 °F - 42.8 °F 59% 30.01 in 10.0 mi Variable 3.5 mph - N/A   Clear
12:53 PM 61.0 °F - 43.0 °F 52% 29.98 in 10.0 mi NE 6.9 mph - N/A   Clear
1:53 PM 64.0 °F - 43.0 °F 46% 29.96 in 10.0 mi East 5.8 mph - N/A   Clear
2:53 PM 64.9 °F - 43.0 °F 45% 29.95 in 10.0 mi Calm Calm - N/A   Mostly Cloudy
3:53 PM 64.9 °F - 44.1 °F 47% 29.95 in 10.0 mi NNE 5.8 mph - N/A   Mostly Cloudy
4:53 PM 64.0 °F - 44.1 °F 48% 29.94 in 10.0 mi ENE 3.5 mph - N/A   Overcast
5:53 PM 62.6 °F - 46.4 °F 55% 29.93 in 10.0 mi NE 3.5 mph - N/A   Overcast
6:53 PM 61.0 °F - 48.0 °F 62% 29.96 in 10.0 mi NNE 3.5 mph - N/A   Overcast
7:53 PM 61.0 °F - 48.9 °F 64% 29.97 in 10.0 mi NNE 4.6 mph - N/A   Overcast
8:53 PM 60.1 °F - 48.9 °F 67% 29.97 in 10.0 mi NE 6.9 mph - N/A   Overcast
9:53 PM 59.0 °F - 48.9 °F 69% 29.96 in 10.0 mi ENE 4.6 mph - N/A   Overcast
10:53 PM 59.0 °F - 51.1 °F 75% 29.96 in 10.0 mi ENE 5.8 mph - N/A   Overcast
11:05 PM 59.0 °F - 50.0 °F 72% 29.93 in 10.0 mi NE 4.6 mph - N/A   Overcast
11:53 PM 59.0 °F - 50.0 °F 72% 29.94 in 10.0 mi East 6.9 mph - N/A   Overcast